TimeEST,TemperatureF,Dew PointF,Humidity,Sea Level PressureIn,VisibilityMPH,Wind Direction,Wind SpeedMPH,Gust SpeedMPH,PrecipitationIn,Events,Conditions,WindDirDegrees,DateUTC
12:56 AM,35.1,24.1,64,30.22,10.0,NE,3.5,-,N/A,,Clear,50,2013-02-26 05:56:00
1:56 AM,30.9,24.1,76,30.26,10.0,Calm,Calm,-,N/A,,Clear,0,2013-02-26 06:56:00
2:56 AM,30.9,25.0,79,30.26,10.0,Calm,Calm,-,N/A,,Clear,0,2013-02-26 07:56:00
3:56 AM,30.0,24.1,79,30.25,10.0,Calm,Calm,-,N/A,,Clear,0,2013-02-26 08:56:00
4:56 AM,30.9,26.1,82,30.25,10.0,NE,3.5,-,N/A,,Mostly Cloudy,40,2013-02-26 09:56:00
5:07 AM,30.2,26.6,86,30.23,10.0,Calm,Calm,-,N/A,,Scattered Clouds,0,2013-02-26 10:07:00
5:56 AM,32.0,27.0,82,30.25,10.0,ENE,3.5,-,N/A,,Clear,60,2013-02-26 10:56:00
6:56 AM,33.8,26.6,75,30.23,10.0,Variable,4.6,-,N/A,,Clear,0,2013-02-26 11:56:00
7:56 AM,36.0,28.0,73,30.28,10.0,East,4.6,-,N/A,,Mostly Cloudy,80,2013-02-26 12:56:00
8:56 AM,37.0,28.0,70,30.30,10.0,ESE,4.6,-,N/A,,Mostly Cloudy,110,2013-02-26 13:56:00
9:56 AM,37.9,28.0,68,30.29,10.0,East,6.9,-,N/A,,Mostly Cloudy,90,2013-02-26 14:56:00
10:56 AM,37.9,27.0,65,30.30,10.0,East,5.8,-,N/A,,Overcast,90,2013-02-26 15:56:00
11:56 AM,37.9,27.0,65,30.29,10.0,East,6.9,-,N/A,,Overcast,90,2013-02-26 16:56:00
12:56 PM,39.9,27.0,60,30.26,10.0,Variable,6.9,-,N/A,,Overcast,0,2013-02-26 17:56:00
1:56 PM,39.9,27.0,60,30.23,10.0,East,10.4,-,N/A,,Overcast,100,2013-02-26 18:56:00
2:56 PM,39.0,28.0,65,30.24,10.0,ESE,9.2,-,N/A,,Overcast,110,2013-02-26 19:56:00
3:56 PM,39.9,28.0,63,30.20,10.0,East,10.4,17.3,N/A,,Overcast,90,2013-02-26 20:56:00
4:03 PM,39.2,28.4,65,30.17,10.0,East,12.7,20.7,N/A,,Mostly Cloudy,90,2013-02-26 21:03:00
4:56 PM,37.9,28.9,70,30.19,10.0,East,9.2,18.4,N/A,,Overcast,90,2013-02-26 21:56:00
5:56 PM,37.0,28.0,70,30.17,10.0,East,11.5,19.6,N/A,,Overcast,100,2013-02-26 22:56:00
6:56 PM,37.0,27.0,67,30.15,10.0,East,10.4,18.4,N/A,,Mostly Cloudy,90,2013-02-26 23:56:00
7:56 PM,37.0,28.0,70,30.13,6.0,East,12.7,23.0,N/A,Rain,Light Rain,100,2013-02-27 00:56:00
8:18 PM,35.6,28.4,75,30.10,6.0,East,13.8,20.7,0.00,Rain,Light Rain,80,2013-02-27 01:18:00
8:56 PM,36.0,30.0,79,30.08,6.0,East,9.2,23.0,0.01,Rain,Light Rain,90,2013-02-27 01:56:00
9:56 PM,35.1,30.0,82,30.04,6.0,East,13.8,26.5,0.02,Rain,Light Rain,80,2013-02-27 02:56:00
10:56 PM,36.0,30.9,82,30.00,3.0,East,15.0,26.5,0.05,Rain,Rain,80,2013-02-27 03:56:00
11:56 PM,37.0,32.0,82,29.94,5.0,East,19.6,28.8,0.08,Rain,Light Rain,80,2013-02-27 04:56:00